QPF
0.00 0.00 0.00 0.00 0.00 0.00 0.00 0.00 0.00 0.00 0.00 0.00 0.00 0.00 0.00 0.00 0.00 0.00 0.00 0.00 0.00 0.00 0.00 0.00 0.00 0.00 0.00 0.00 0.00 0.00 0.00 0.00 0.00 0.00 0.00 0.00 0.00 0.00 0.00 0.00 0.00 0.00 0.00 0.00 0.00 0.00 0.00 0.00 0.00
0.00 0.00 0.00 0.00 0.00 0.00 0.00 0.00 0.00 0.00 0.00 0.00 0.00 0.00 0.00 0.00 0.00 0.00 0.00 0.00 0.00 0.00 0.00 0.00 0.00 0.00 0.00 0.00 0.00 0.00 0.00 0.00 0.00 0.00 0.00 0.00 0.00 0.00 0.00 0.00 0.00 0.00 0.00 0.00 0.00 0.00 0.00 0.00 0.00
0.00 0.00 0.00 0.00 0.00 0.00 0.00 0.00 0.00 0.00 0.00 0.00 0.00 0.00 0.00 0.00 0.00 0.00 0.00 0.00 0.00 0.00 0.00 0.00 0.00 0.00 0.00 0.00 0.00 0.00 0.00 0.00 0.00 0.00 0.00 0.00 0.00 0.00 0.00 0.00 0.00 0.00 0.00 0.00 0.00 0.00 0.00 0.00 0.00
0.00 0.00 0.00 0.00 0.00 0.00 0.00 0.00 0.00 0.00 0.00 0.00 0.00 0.00 0.00 0.00 0.00 0.00 0.00 0.00 0.00 0.00 0.00 0.00 0.00 0.00 0.00 0.00 0.00 0.00 0.00 0.00 0.00 0.00 0.00 0.00 0.00 0.00 0.00 0.00 0.00 0.00 0.00 0.00 0.00 0.00 0.00 0.00 0.00
0.00 0.00 0.00 0.00 0.00 0.00 0.00 0.00 0.00 0.00 0.00 0.00 0.00 0.00 0.00 0.00 0.00 0.00 0.00 0.00 0.00 0.00 0.00 0.00 0.00 0.00 0.00 0.00 0.00 0.00 0.00 0.00 0.00 0.00 0.00 0.00 0.00 0.00 0.00 0.00 0.00 0.00 0.00 0.00 0.00 0.00 0.00 0.00 0.00
0.00 0.00 0.00 0.00 0.00 0.00 0.00 0.00 0.00 0.00 0.00 0.00 0.00 0.00 0.00 0.00 0.00 0.00 0.00 0.00 0.00 0.00 0.00 0.00 0.00 0.00 0.00 0.00 0.00 0.00 0.00 0.00 0.00 0.00 0.00 0.00 0.00 0.00 0.00 0.00 0.00 0.00 0.00 0.00 0.00 0.00 0.00 0.00 0.00
0.00 0.00 0.00 0.00 0.00 0.00 0.00 0.00 0.00 0.00 0.00 0.00 0.00 0.00 0.00 0.00 0.00 0.00 0.00 0.00 0.00 0.00 0.00 0.00 0.00 0.00 0.00 0.00 0.00 0.00 0.00 0.00 0.00 0.00 0.00 0.00 0.00 0.00 0.00 0.00 0.00 0.00 0.00 0.00 0.00 0.00 0.00 0.00 0.00
0.00 0.00 0.00 0.00 0.00 0.00 0.00 0.00 0.00 0.00 0.00 0.00 0.00 0.00 0.00 0.00 0.00 0.00 0.00 0.00 0.00 0.00 0.00 0.00 0.00 0.00 0.00 0.00 0.00 0.00 0.00 0.00 0.00 0.00 0.00 0.00 0.00 0.00 0.00 0.00 0.00 0.00 0.00 0.00 0.00 0.00 0.00 0.00 0.00
0.00 0.00 0.00 0.00 0.00 0.00 0.00 0.00 0.00 0.00 0.00 0.00 0.00 0.00 0.00 0.00 0.00 0.00 0.00 0.00 0.00 0.00 0.00 0.00 0.00 0.00 0.00 0.00 0.00 0.00 0.00 0.00 0.00 0.00 0.00 0.00 0.00 0.00 0.00 0.00 0.00 0.00 0.00 0.00 0.00 0.00 0.00 0.00 0.00
0.00 0.00 0.00 0.00 0.00 0.00 0.00 0.00 0.00 0.00 0.00 0.00 0.00 0.00 0.00 0.00 0.00 0.00 0.00 0.00 0.00 0.00 0.00 0.00 0.00 0.00 0.00 0.00 0.00 0.00 0.00 0.00 0.00 0.00 0.00 0.00 0.00 0.00 0.00 0.00 0.00 0.00 0.00 0.00 0.00 0.00 0.00 0.00 0.00
0.00 0.00 0.00 0.00 0.00 0.00 0.00 0.00 0.00 0.00 0.00 0.00 0.00 0.00 0.00 0.00 0.00 0.00 0.00 0.00 0.00 0.00 0.00 0.00 0.00 0.00 0.00 0.00 0.00 0.00 0.00 0.00 0.00 0.00 0.00 0.00 0.00 0.00 0.00 0.00 0.00 0.00 0.00 0.00 0.00 0.00 0.00 0.00 0.00
0.00 0.00 0.00 0.00 0.00 0.00 0.00 0.00 0.00 0.00 0.00 0.00 0.00 0.00 0.00 0.00 0.00 0.00 0.00 0.00 0.00 0.00 0.00 0.00 0.00 0.00 0.00 0.00 0.00 0.00 0.00 0.00 0.00 0.00 0.00 0.00 0.00 0.00 0.00 0.00 0.00 0.00 0.00 0.00 0.00 0.00 0.00 0.00 0.00
0.00 0.00 0.00 0.00 0.00 0.00 0.00 0.00 0.00 0.00 0.00 0.00 0.00 0.00 0.00 0.00 0.00 0.00 0.00 0.00 0.00 0.00 0.00 0.00 0.00 0.00 0.00 0.00 0.00 0.00 0.00 0.00 0.00 0.00 0.00 0.00 0.00 0.00 0.00 0.00 0.00 0.00 0.00 0.00 0.00 0.00 0.00 0.00 0.00
0.00 0.00 0.00 0.00 0.00 0.00 0.00 0.00 0.00 0.00 0.00 0.00 0.00 0.00 0.00 0.00 0.00 0.00 0.01 0.01 0.01 0.00 0.00 0.00 0.00 0.00 0.00 0.00 0.00 0.00 0.00 0.00 0.00 0.00 0.00 0.00 0.00 0.00 0.00 0.00 0.00 0.00 0.00 0.00 0.00 0.00 0.00 0.00 0.00
0.00 0.00 0.00 0.00 0.00 0.00 0.00 0.00 0.00 0.00 0.00 0.00 0.00 0.00 0.00 0.00 0.00 0.00 0.00 0.00 0.01 0.00 0.00 0.00 0.00 0.00 0.00 0.00 0.00 0.00 0.00 0.00 0.00 0.00 0.00 0.00 0.00 0.00 0.00 0.00 0.00 0.00 0.00 0.00 0.00 0.00 0.00 0.00 0.00
0.00 0.00 0.00 0.00 0.00 0.00 0.00 0.00 0.00 0.00 0.00 0.00 0.00 0.00 0.00 0.00 0.00 0.00 0.00 0.00 0.01 0.00 0.00 0.00 0.00 0.00 0.00 0.00 0.00 0.00 0.00 0.00 0.00 0.00 0.00 0.00 0.00 0.00 0.00 0.00 0.00 0.00 0.00 0.00 0.00 0.00 0.00 0.00 0.00
0.00 0.00 0.00 0.00 0.00 0.00 0.00 0.00 0.00 0.00 0.00 0.00 0.00 0.00 0.00 0.00 0.00 0.00 0.00 0.00 0.00 0.00 0.00 0.00 0.00 0.00 0.00 0.00 0.00 0.00 0.00 0.00 0.00 0.00 0.00 0.00 0.00 0.00 0.00 0.00 0.00 0.00 0.00 0.00 0.00 0.00 0.00 0.00 0.00
0.00 0.00 0.00 0.00 0.00 0.00 0.00 0.00 0.00 0.00 0.00 0.00 0.00 0.00 0.00 0.00 0.00 0.00 0.00 0.00 0.00 0.00 0.00 0.00 0.00 0.00 0.00 0.00 0.00 0.00 0.00 0.00 0.00 0.00 0.00 0.00 0.00 0.00 0.00 0.00 0.00 0.00 0.00 0.00 0.00 0.00 0.00 0.00 0.00
0.00 0.00 0.00 0.00 0.00 0.00 0.00 0.00 0.00 0.00 0.00 0.00 0.00 0.00 0.00 0.00 0.00 0.00 0.00 0.00 0.00 0.00 0.00 0.00 0.00 0.00 0.00 0.00 0.00 0.00 0.00 0.00 0.00 0.00 0.00 0.00 0.00 0.00 0.00 0.00 0.00 0.00 0.00 0.00 0.00 0.00 0.00 0.00 0.00
0.00 0.00 0.00 0.00 0.00 0.00 0.00 0.00 0.00 0.00 0.00 0.00 0.00 0.00 0.00 0.00 0.00 0.00 0.00 0.00 0.00 0.00 0.00 0.00 0.00 0.00 0.00 0.00 0.00 0.00 0.00 0.00 0.00 0.00 0.00 0.00 0.00 0.00 0.00 0.00 0.00 0.00 0.00 0.00 0.00 0.00 0.00 0.00 0.00
0.00 0.00 0.00 0.00 0.00 0.00 0.00 0.00 0.00 0.00 0.00 0.00 0.00 0.00 0.00 0.00 0.00 0.00 0.00 0.00 0.00 0.00 0.00 0.00 0.00 0.00 0.00 0.00 0.00 0.00 0.00 0.00 0.00 0.00 0.00 0.00 0.00 0.00 0.00 0.00 0.00 0.00 0.00 0.00 0.00 0.00 0.00 0.00 0.00
0.00 0.00 0.00 0.00 0.00 0.00 0.00 0.00 0.00 0.00 0.00 0.00 0.00 0.00 0.00 0.00 0.00 0.00 0.00 0.00 0.00 0.00 0.00 0.00 0.00 0.00 0.00 0.00 0.00 0.00 0.00 0.00 0.00 0.00 0.00 0.00 0.00 0.00 0.00 0.00 0.00 0.00 0.00 0.00 0.00 0.00 0.00 0.00 0.00
0.00 0.00 0.00 0.00 0.00 0.00 0.00 0.00 0.00 0.00 0.00 0.00 0.00 0.00 0.00 0.00 0.00 0.00 0.00 0.00 0.00 0.00 0.00 0.00 0.00 0.00 0.00 0.00 0.00 0.00 0.00 0.00 0.00 0.00 0.00 0.00 0.00 0.00 0.00 0.00 0.00 0.00 0.00 0.00 0.00 0.00 0.00 0.00 0.00
0.00 0.00 0.00 0.00 0.00 0.00 0.00 0.00 0.00 0.00 0.00 0.00 0.00 0.00 0.00 0.00 0.00 0.00 0.00 0.00 0.00 0.00 0.00 0.00 0.00 0.00 0.00 0.00 0.00 0.00 0.00 0.00 0.00 0.00 0.00 0.00 0.00 0.00 0.00 0.00 0.00 0.00 0.00 0.00 0.00 0.00 0.00 0.00 0.00
0.00 0.00 0.00 0.00 0.00 0.00 0.00 0.00 0.00 0.00 0.00 0.00 0.00 0.00 0.00 0.00 0.00 0.00 0.00 0.00 0.00 0.00 0.00 0.00 0.00 0.00 0.00 0.00 0.00 0.00 0.00 0.00 0.00 0.00 0.00 0.00 0.00 0.00 0.00 0.00 0.00 0.00 0.00 0.00 0.00 0.00 0.00 0.00 0.00
0.00 0.00 0.00 0.01 0.00 0.00 0.00 0.00 0.00 0.00 0.00 0.00 0.00 0.00 0.00 0.00 0.00 0.00 0.00 0.00 0.00 0.00 0.00 0.00 0.00 0.00 0.00 0.00 0.00 0.00 0.00 0.00 0.00 0.00 0.00 0.00 0.00 0.00 0.00 0.01 0.00 0.00 0.00 0.00 0.00 0.01 0.01 0.00 0.00
0.00 0.00 0.01 0.02 0.00 0.00 0.00 0.00 0.00 0.00 0.00 0.00 0.00 0.00 0.00 0.00 0.00 0.00 0.00 0.00 0.00 0.00 0.00 0.00 0.00 0.00 0.00 0.00 0.00 0.00 0.00 0.00 0.00 0.00 0.00 0.00 0.00 0.00 0.01 0.02 0.01 0.00 0.00 0.00 0.00 0.00 0.00 0.00 0.00
0.00 0.00 0.01 0.02 0.02 0.03 0.00 0.00 0.00 0.00 0.00 0.00 0.00 0.00 0.00 0.00 0.00 0.00 0.00 0.00 0.00 0.00 0.00 0.00 0.00 0.00 0.00 0.00 0.00 0.00 0.00 0.00 0.00 0.00 0.00 0.00 0.01 0.00 0.02 0.01 0.00 0.00 0.00 0.01 0.00 0.00 0.00 0.00 0.00
0.00 0.00 0.00 0.00 0.04 0.12 0.08 0.01 0.01 0.00 0.00 0.00 0.00 0.00 0.00 0.00 0.00 0.00 0.00 0.00 0.00 0.00 0.00 0.00 0.00 0.00 0.00 0.00 0.00 0.00 0.00 0.00 0.00 0.00 0.00 0.00 0.02 0.02 0.00 0.00 0.01 0.00 0.01 0.00 0.00 0.00 0.00 0.00 0.00
0.00 0.00 0.00 0.01 0.03 0.04 0.04 0.01 0.00 0.00 0.00 0.00 0.00 0.00 0.00 0.00 0.00 0.00 0.00 0.00 0.00 0.00 0.00 0.00 0.00 0.00 0.00 0.00 0.00 0.00 0.00 0.00 0.00 0.00 0.00 0.02 0.05 0.01 0.00 0.00 0.01 0.00 0.00 0.00 0.00 0.00 0.00 0.00 0.00
MSLP
1009.83 1009.61 1009.78 1009.84 1011.33 1011.96 1011.09 1009.22 1007.08 1005.39 1004.85 1003.17 1002.64 1001.72 1000.96 1001.37 1002.11 1003.15 1001.93 1002.83 1003.42 1004.57 1006.11 1007.04 1007.52 1007.25 1007.40 1007.76 1008.43 1008.99 1009.38 1009.96 1010.39 1010.62 1010.97 1011.40 1011.55 1011.75 1012.05 1012.23 1012.40 1012.61 1012.78 1012.88 1013.15 1013.34 1013.53 1013.60 1013.78
1009.73 1009.53 1009.94 1010.46 1011.56 1012.06 1010.43 1007.99 1006.62 1005.76 1004.63 1003.02 1001.92 1001.96 1000.76 1001.19 1001.17 1001.83 1002.61 1003.09 1003.26 1004.57 1005.89 1006.78 1007.40 1007.09 1007.24 1007.74 1008.40 1008.97 1009.24 1009.80 1010.17 1010.59 1010.99 1011.39 1011.55 1011.98 1012.23 1012.44 1012.54 1012.66 1012.72 1012.89 1013.11 1013.41 1013.53 1013.60 1013.76
1009.70 1009.73 1010.63 1011.16 1011.43 1010.96 1009.56 1007.23 1006.28 1005.24 1004.09 1003.00 1001.49 1000.05 1000.01 1000.37 1000.74 1001.08 1001.60 1002.44 1003.27 1004.83 1005.35 1006.35 1007.00 1006.79 1006.82 1007.51 1008.14 1008.70 1009.08 1009.45 1010.03 1010.52 1010.99 1011.31 1011.57 1011.73 1012.13 1012.45 1012.53 1012.67 1012.78 1012.95 1013.17 1013.39 1013.51 1013.66 1013.74
1009.82 1010.25 1011.17 1011.23 1010.64 1009.20 1007.93 1006.85 1005.94 1004.94 1003.18 1001.84 1001.15 999.83 999.56 998.92 999.52 1000.42 1001.75 1002.65 1003.40 1004.48 1005.21 1006.02 1006.71 1006.58 1006.53 1007.36 1007.92 1008.56 1009.13 1009.47 1009.67 1010.12 1010.70 1011.09 1011.43 1011.62 1011.89 1012.23 1012.48 1012.66 1012.78 1012.88 1013.11 1013.34 1013.47 1013.57 1013.75
1009.70 1010.53 1011.34 1011.29 1009.56 1008.19 1007.37 1006.47 1005.75 1004.83 1003.31 1001.91 1001.06 1000.09 999.53 999.76 999.62 1000.49 1001.45 1002.53 1003.32 1004.54 1005.24 1006.10 1006.68 1006.58 1006.40 1006.96 1007.60 1008.06 1008.61 1009.22 1009.64 1009.88 1010.20 1010.69 1011.08 1011.51 1011.82 1012.19 1012.44 1012.64 1012.79 1012.82 1013.03 1013.25 1013.41 1013.49 1013.72
1010.10 1010.50 1011.42 1010.90 1008.97 1007.64 1006.90 1006.06 1005.60 1004.67 1003.27 1002.04 1000.95 1000.74 1000.06 1000.05 1000.02 1000.67 1001.04 1002.08 1002.86 1003.85 1004.98 1005.77 1006.36 1006.37 1006.18 1006.65 1007.34 1007.83 1008.32 1008.76 1009.48 1010.05 1010.17 1010.40 1010.70 1011.14 1011.63 1012.09 1012.32 1012.53 1012.74 1012.75 1012.94 1013.15 1013.40 1013.51 1013.74
1010.20 1010.61 1010.57 1010.01 1008.69 1007.22 1006.36 1005.46 1005.21 1004.22 1003.22 1001.74 1000.84 1000.79 1000.85 1000.87 1000.23 1000.34 1001.07 1002.27 1003.41 1004.23 1005.02 1005.83 1006.27 1006.39 1006.42 1006.56 1007.25 1007.78 1008.12 1008.62 1009.12 1009.60 1010.02 1010.29 1010.58 1010.91 1011.26 1011.79 1012.19 1012.43 1012.62 1012.67 1012.83 1013.03 1013.20 1013.36 1013.63
1009.96 1010.22 1010.18 1009.46 1008.41 1006.46 1005.68 1005.10 1004.60 1004.08 1003.04 1001.72 1000.54 1000.84 1000.80 1000.56 1001.50 1001.81 1002.33 1003.31 1004.02 1004.61 1005.20 1005.91 1006.32 1006.58 1006.78 1006.95 1007.20 1007.60 1008.04 1008.45 1008.90 1009.21 1009.71 1010.03 1010.35 1010.67 1010.89 1011.23 1011.73 1012.16 1012.31 1012.43 1012.68 1012.87 1013.08 1013.30 1013.48
1009.40 1009.98 1009.75 1008.93 1008.11 1006.21 1005.12 1005.13 1003.92 1003.74 1003.07 1002.76 1001.69 1000.81 1000.28 1000.27 1001.75 1002.48 1002.77 1004.00 1004.57 1005.12 1005.42 1005.92 1006.26 1006.65 1006.75 1007.02 1007.30 1007.59 1007.80 1008.32 1008.80 1009.06 1009.26 1009.76 1010.16 1010.55 1010.75 1010.88 1011.31 1011.80 1012.14 1012.22 1012.44 1012.68 1012.90 1013.13 1013.42
1009.59 1009.42 1008.89 1008.05 1007.40 1006.64 1005.62 1005.12 1004.35 1004.15 1003.26 1002.55 1002.56 1001.16 1001.11 1000.15 1001.52 1002.56 1003.09 1003.62 1004.37 1004.87 1005.21 1005.53 1006.00 1006.43 1006.89 1007.06 1007.28 1007.56 1007.59 1007.99 1008.43 1008.82 1009.11 1009.35 1009.80 1010.17 1010.42 1010.63 1011.01 1011.50 1011.98 1012.13 1012.27 1012.47 1012.64 1012.91 1013.22
1008.94 1008.38 1008.20 1007.68 1007.30 1006.90 1005.91 1004.62 1004.59 1004.41 1003.48 1002.82 1002.97 1002.11 1001.60 1001.52 1002.56 1002.43 1002.59 1002.87 1002.92 1003.56 1004.70 1005.30 1005.60 1006.09 1006.37 1006.90 1007.26 1007.57 1007.57 1007.83 1008.18 1008.42 1008.88 1009.18 1009.59 1010.02 1010.16 1010.48 1010.81 1011.20 1011.54 1011.93 1012.09 1012.33 1012.50 1012.65 1012.94
1009.01 1008.37 1008.00 1007.56 1007.02 1006.84 1006.12 1005.22 1004.60 1004.45 1003.23 1002.66 1002.75 1002.46 1002.30 1001.78 1002.60 1002.99 1003.27 1001.84 1002.33 1002.93 1003.52 1004.21 1004.74 1005.14 1005.71 1006.03 1006.67 1007.15 1007.30 1007.51 1007.80 1007.95 1008.36 1008.91 1009.37 1009.78 1010.27 1010.42 1010.63 1010.81 1011.06 1011.53 1011.80 1012.05 1012.15 1012.34 1012.61
1008.89 1008.34 1007.73 1007.17 1006.78 1006.40 1006.25 1005.25 1004.33 1003.17 1002.72 1002.28 1001.58 1002.27 1002.05 1002.16 1001.97 1002.26 1002.17 1002.82 1002.21 1003.01 1003.30 1003.72 1004.52 1004.67 1005.10 1005.48 1005.93 1006.52 1006.96 1006.99 1007.07 1007.49 1007.95 1008.36 1008.83 1009.20 1009.69 1009.89 1010.07 1010.30 1010.75 1010.98 1011.45 1011.69 1011.92 1012.04 1012.22
1008.80 1008.53 1007.99 1007.24 1006.69 1006.22 1006.02 1005.09 1004.63 1002.24 1002.48 1002.37 1001.46 1001.30 1001.32 1001.43 1001.55 1002.36 1002.31 1002.71 1003.17 1002.31 1002.70 1003.22 1004.03 1004.32 1004.45 1004.89 1005.62 1005.73 1005.99 1006.29 1006.79 1006.96 1007.10 1007.55 1007.72 1008.45 1008.99 1009.43 1009.68 1009.87 1010.17 1010.47 1010.69 1011.14 1011.40 1011.60 1011.93
1009.31 1008.86 1008.12 1007.24 1006.76 1006.27 1005.93 1004.64 1003.26 1003.02 1002.62 1002.17 1001.62 1000.66 1000.57 1001.06 1000.95 1001.23 1002.32 1002.58 1002.57 1002.08 1001.94 1002.63 1003.15 1003.54 1004.00 1004.18 1004.95 1005.18 1005.31 1005.79 1006.06 1006.44 1006.57 1006.77 1007.06 1007.73 1008.16 1008.71 1008.98 1009.15 1009.52 1009.98 1010.31 1010.74 1011.08 1011.36 1011.58
1009.71 1009.43 1008.89 1007.54 1006.86 1006.17 1005.96 1003.31 1003.24 1003.29 1003.13 1002.30 1001.91 1001.31 1000.88 1000.55 1000.48 1000.44 1001.01 1001.85 1001.99 1001.78 1001.70 1001.96 1002.37 1003.46 1003.32 1003.82 1004.25 1004.62 1004.50 1005.10 1005.47 1005.85 1006.12 1006.13 1006.25 1006.97 1007.59 1008.13 1008.27 1008.53 1008.98 1009.56 1010.10 1010.40 1010.79 1011.02 1011.27
1010.13 1009.83 1009.00 1008.13 1006.93 1006.31 1005.83 1004.07 1004.38 1003.92 1003.53 1002.82 1002.10 1001.63 1000.99 1000.08 1000.35 1000.30 1000.23 1001.10 1001.21 1001.72 1001.30 1001.08 1001.41 1002.08 1002.82 1003.18 1003.43 1003.85 1004.11 1004.42 1004.96 1005.25 1005.61 1005.50 1005.58 1006.09 1006.89 1007.25 1007.52 1008.00 1008.62 1009.09 1009.52 1009.95 1010.18 1010.63 1010.94
1010.52 1009.94 1009.28 1008.33 1007.44 1006.75 1005.95 1004.82 1004.98 1004.62 1004.07 1003.60 1003.01 1002.36 1001.44 1000.44 999.68 999.80 999.90 999.63 1000.45 1000.58 1001.34 1000.54 1000.14 1000.63 1001.34 1002.56 1002.86 1003.16 1003.49 1003.91 1004.36 1004.65 1004.94 1005.19 1005.14 1005.48 1006.16 1006.49 1007.01 1007.51 1008.14 1008.62 1009.07 1009.47 1009.72 1009.88 1010.12
1010.12 1009.63 1009.23 1008.51 1007.69 1007.01 1006.53 1005.32 1004.80 1004.63 1004.27 1004.01 1003.44 1002.96 1002.25 1001.66 1000.23 998.96 999.37 999.41 999.48 1000.12 1000.45 1000.64 1000.64 1000.18 1000.34 1001.91 1002.45 1002.95 1003.09 1003.35 1003.81 1004.11 1004.17 1004.45 1004.55 1004.79 1005.36 1005.95 1006.57 1006.94 1007.45 1007.75 1008.29 1008.87 1009.44 1009.72 1009.81
1009.64 1009.53 1009.20 1008.34 1007.78 1007.50 1006.85 1005.14 1004.45 1004.61 1004.37 1004.04 1003.56 1003.03 1002.43 1001.60 1000.82 1000.05 999.74 999.08 999.36 999.59 999.55 999.96 1000.05 1000.10 999.84 1000.41 1000.79 1001.22 1001.79 1002.68 1002.75 1003.12 1003.47 1003.65 1003.94 1004.22 1004.62 1005.16 1005.76 1006.17 1006.83 1007.39 1007.89 1008.28 1008.92 1009.22 1009.48
1009.66 1009.90 1009.92 1009.73 1008.84 1008.35 1007.80 1005.32 1005.12 1004.61 1004.15 1003.65 1003.32 1002.92 1002.36 1001.93 1001.09 1000.13 999.42 999.25 998.71 998.88 999.20 999.34 999.32 999.65 999.49 999.81 1000.47 1001.49 1002.32 1002.88 1003.14 1003.11 1003.15 1002.98 1003.27 1003.44 1003.83 1004.37 1004.96 1005.51 1006.14 1006.92 1007.37 1007.79 1008.24 1008.99 1009.39
1010.05 1010.18 1010.39 1010.34 1010.24 1009.90 1009.17 1006.87 1005.57 1004.87 1004.19 1003.93 1003.47 1003.06 1002.70 1001.84 1001.13 1000.31 999.68 999.20 998.25 998.03 998.03 998.46 998.87 999.22 999.40 999.64 1000.24 1000.66 1001.12 1001.99 1001.95 1001.96 1002.15 1002.31 1002.50 1002.68 1003.30 1003.84 1004.40 1004.92 1005.69 1006.42 1006.89 1007.30 1007.72 1008.24 1009.03
1010.36 1010.54 1011.07 1010.96 1010.76 1010.56 1009.63 1008.97 1005.55 1005.39 1004.15 1003.58 1003.22 1002.96 1002.25 1001.73 1001.03 1000.20 999.45 998.62 997.97 997.26 997.42 997.58 998.00 998.68 998.95 999.29 999.64 1000.05 1000.70 1000.64 1000.90 1001.42 1001.57 1002.20 1002.25 1002.29 1002.86 1003.52 1004.09 1004.77 1005.38 1005.88 1006.46 1007.02 1007.32 1007.60 1008.22
1010.53 1011.09 1011.42 1011.54 1011.30 1010.87 1009.84 1009.06 1004.81 1005.73 1004.61 1003.66 1003.26 1002.80 1002.35 1001.94 1001.20 1000.25 999.22 998.41 997.47 996.91 996.51 996.81 997.00 997.65 998.13 998.62 998.94 999.35 999.95 1000.39 1001.19 1001.32 1001.40 1002.16 1002.34 1002.40 1002.77 1003.33 1003.87 1004.51 1005.12 1005.60 1006.05 1006.38 1006.87 1007.42 1007.86
1010.86 1012.01 1012.84 1012.89 1012.50 1011.16 1009.83 1008.90 1006.47 1005.15 1004.60 1004.29 1004.08 1003.80 1003.40 1002.77 1001.89 1000.90 999.86 998.25 997.09 996.71 996.17 995.89 995.91 996.66 997.23 997.77 998.25 998.60 999.09 999.58 1000.19 1000.60 1000.97 1001.62 1002.10 1002.50 1002.91 1003.27 1003.80 1004.36 1004.81 1005.26 1005.61 1006.12 1006.60 1007.12 1007.72
1011.32 1012.27 1013.39 1013.45 1013.09 1011.71 1010.02 1008.32 1006.03 1005.10 1004.72 1004.51 1004.28 1003.94 1003.12 1002.41 1001.50 1000.47 999.43 998.30 996.65 995.83 995.74 995.43 995.66 996.06 996.54 996.98 997.42 997.79 998.40 999.04 999.55 999.83 1000.26 1000.79 1001.43 1001.89 1002.48 1003.01 1003.45 1003.94 1004.54 1004.93 1005.38 1005.87 1006.40 1006.97 1007.55
1011.13 1012.02 1012.35 1013.27 1012.93 1012.47 1010.11 1007.82 1006.00 1005.55 1005.12 1004.62 1004.02 1003.59 1002.97 1001.87 1000.89 999.89 998.55 997.01 995.38 994.76 994.82 994.74 994.97 995.29 995.75 996.13 996.70 997.21 997.73 998.42 998.95 999.18 999.66 1000.25 1000.90 1001.56 1002.24 1002.68 1003.26 1003.70 1004.16 1004.63 1005.19 1005.74 1006.44 1006.95 1007.52
1010.75 1011.46 1012.57 1013.38 1013.16 1012.00 1009.78 1008.21 1006.60 1005.87 1005.21 1004.90 1003.96 1003.38 1002.38 1001.26 1000.14 999.50 998.56 997.08 995.10 993.13 993.26 993.78 994.06 994.62 995.04 995.53 996.03 996.59 997.13 997.66 998.17 998.68 999.22 999.92 1000.66 1001.28 1001.95 1002.61 1003.04 1003.58 1004.04 1004.52 1005.13 1005.82 1006.43 1007.00 1007.52
1011.37 1011.81 1012.57 1013.21 1012.96 1011.99 1009.93 1008.19 1006.26 1005.56 1004.86 1004.89 1004.15 1003.27 1002.32 1001.01 1000.06 999.47 998.34 996.66 995.57 993.36 993.01 993.11 993.41 993.88 994.37 994.88 995.52 996.12 996.74 997.28 997.78 998.36 998.89 999.65 1000.22 1001.00 1001.68 1002.31 1002.93 1003.44 1003.99 1004.62 1005.24 1005.85 1006.42 1006.96 1007.42
1011.16 1011.56 1012.18 1012.94 1012.50 1011.66 1010.56 1006.93 1005.36 1005.23 1004.76 1004.40 1003.82 1003.43 1002.22 1001.39 999.47 998.76 997.95 997.42 995.85 994.11 993.42 993.50 993.43 993.41 993.58 994.08 994.77 995.61 996.32 996.96 997.60 998.19 998.71 999.38 999.93 1000.78 1001.52 1002.12 1002.74 1003.31 1003.89 1004.52 1005.23 1005.82 1006.27 1006.71 1007.22
Thickness
5770 5773 5776 5772 5739 5732 5735 5761 5794 5805 5808 5833 5835 5843 5842 5845 5830 5805 5872 5872 5871 5862 5847 5838 5834 5838 5838 5834 5827 5821 5817 5809 5804 5802 5797 5790 5787 5784 5779 5775 5772 5768 5764 5761 5756 5752 5748 5745 5740
5764 5770 5763 5751 5722 5714 5733 5773 5787 5795 5808 5826 5836 5829 5842 5833 5860 5858 5858 5867 5871 5862 5848 5839 5834 5839 5839 5834 5827 5820 5817 5810 5804 5799 5793 5787 5785 5779 5775 5771 5768 5765 5763 5759 5754 5749 5745 5742 5738
5757 5760 5736 5725 5713 5719 5737 5781 5787 5797 5809 5818 5828 5856 5848 5844 5863 5867 5873 5872 5868 5856 5852 5842 5837 5841 5842 5836 5829 5822 5817 5813 5805 5799 5792 5787 5783 5781 5774 5769 5766 5762 5760 5757 5752 5747 5743 5739 5736
5744 5740 5729 5712 5721 5749 5763 5777 5786 5790 5810 5827 5834 5837 5858 5878 5875 5878 5871 5867 5862 5856 5851 5844 5838 5841 5843 5835 5830 5822 5815 5811 5809 5803 5794 5788 5783 5780 5776 5770 5765 5760 5757 5754 5750 5745 5742 5738 5733
5737 5723 5702 5703 5728 5755 5771 5778 5780 5782 5797 5814 5829 5828 5837 5862 5876 5873 5869 5864 5858 5851 5847 5841 5836 5838 5842 5837 5831 5826 5820 5812 5807 5804 5799 5791 5785 5779 5774 5769 5764 5758 5754 5752 5748 5744 5740 5737 5731
5716 5715 5689 5690 5729 5757 5766 5778 5777 5782 5792 5805 5815 5815 5828 5857 5863 5865 5867 5862 5860 5853 5846 5841 5837 5837 5841 5838 5832 5827 5821 5816 5807 5800 5796 5792 5788 5782 5775 5768 5762 5757 5752 5751 5747 5742 5737 5733 5729
5705 5695 5694 5707 5725 5746 5764 5778 5772 5779 5784 5797 5822 5803 5819 5835 5856 5864 5863 5857 5850 5845 5841 5837 5834 5834 5835 5835 5830 5824 5820 5814 5808 5801 5796 5792 5787 5781 5776 5769 5762 5757 5751 5749 5745 5741 5737 5733 5728
5707 5699 5698 5707 5722 5741 5765 5773 5781 5775 5782 5814 5827 5798 5803 5836 5841 5843 5844 5838 5838 5836 5834 5831 5830 5829 5827 5828 5827 5823 5818 5813 5807 5804 5797 5792 5786 5781 5778 5773 5766 5758 5753 5748 5744 5740 5735 5731 5726
5712 5680 5685 5705 5717 5743 5760 5756 5784 5786 5783 5789 5808 5817 5829 5840 5833 5829 5829 5823 5824 5823 5826 5826 5827 5825 5824 5823 5822 5821 5818 5811 5805 5803 5799 5792 5787 5781 5778 5775 5768 5759 5752 5749 5744 5739 5734 5730 5723
5687 5673 5689 5719 5726 5724 5743 5753 5764 5770 5774 5782 5785 5811 5820 5832 5824 5816 5816 5817 5817 5819 5822 5824 5824 5822 5819 5817 5818 5817 5817 5812 5807 5803 5798 5795 5789 5784 5779 5775 5768 5759 5751 5747 5742 5738 5734 5728 5723
5689 5686 5704 5714 5720 5723 5731 5748 5760 5757 5764 5778 5772 5790 5806 5812 5804 5811 5816 5819 5823 5827 5818 5819 5820 5819 5820 5816 5812 5813 5814 5811 5807 5804 5798 5794 5789 5783 5779 5775 5767 5759 5752 5745 5741 5736 5732 5728 5721
5671 5689 5697 5705 5715 5715 5719 5739 5739 5748 5769 5789 5786 5792 5794 5803 5796 5800 5801 5823 5824 5824 5823 5819 5820 5822 5820 5821 5814 5814 5813 5810 5807 5804 5799 5794 5789 5783 5776 5772 5766 5760 5753 5746 5741 5736 5732 5727 5720
5668 5682 5690 5702 5708 5712 5715 5720 5733 5747 5773 5785 5796 5789 5788 5790 5798 5802 5807 5808 5820 5816 5820 5818 5816 5818 5818 5820 5815 5813 5811 5811 5809 5803 5798 5794 5790 5784 5777 5773 5767 5761 5753 5747 5740 5735 5730 5725 5719
5671 5674 5681 5693 5699 5702 5699 5712 5720 5757 5767 5767 5782 5786 5791 5795 5797 5790 5798 5797 5797 5813 5817 5817 5814 5815 5817 5818 5813 5812 5812 5811 5807 5803 5801 5797 5794 5786 5779 5773 5766 5761 5754 5748 5742 5735 5729 5724 5717
5661 5656 5667 5681 5687 5686 5694 5697 5720 5747 5752 5752 5763 5779 5788 5789 5796 5796 5787 5790 5796 5806 5813 5812 5814 5815 5814 5815 5811 5812 5809 5809 5808 5804 5801 5798 5795 5788 5783 5774 5767 5762 5755 5748 5740 5734 5727 5721 5715
5643 5647 5639 5665 5671 5681 5678 5691 5724 5732 5729 5738 5747 5761 5771 5781 5791 5795 5796 5791 5794 5801 5804 5806 5810 5804 5810 5810 5809 5811 5811 5810 5809 5803 5799 5799 5797 5789 5783 5774 5769 5760 5754 5746 5738 5731 5724 5719 5712
5625 5620 5631 5640 5658 5662 5667 5685 5698 5708 5710 5719 5731 5741 5757 5772 5776 5785 5795 5789 5792 5791 5801 5803 5802 5807 5805 5809 5810 5809 5809 5807 5805 5802 5799 5799 5796 5791 5783 5776 5771 5759 5751 5743 5737 5729 5724 5716 5709
5611 5616 5623 5625 5644 5648 5652 5669 5680 5692 5694 5698 5710 5718 5731 5750 5772 5781 5785 5794 5790 5792 5790 5801 5806 5804 5806 5798 5801 5804 5805 5803 5800 5801 5798 5793 5793 5789 5782 5777 5768 5758 5748 5740 5733 5727 5722 5717 5711
5617 5617 5616 5625 5638 5638 5638 5656 5673 5681 5686 5687 5698 5707 5716 5729 5754 5774 5776 5782 5787 5786 5786 5787 5790 5800 5805 5791 5789 5793 5798 5798 5794 5794 5794 5790 5787 5786 5781 5772 5763 5756 5746 5740 5733 5725 5718 5711 5708
5609 5605 5602 5620 5631 5626 5626 5651 5671 5672 5673 5680 5687 5696 5703 5717 5734 5752 5757 5771 5774 5776 5783 5782 5786 5792 5797 5798 5800 5801 5800 5793 5797 5795 5792 5788 5784 5783 5780 5770 5760 5754 5745 5737 5729 5723 5713 5708 5704
5593 5588 5585 5589 5606 5610 5609 5639 5646 5659 5663 5672 5680 5684 5693 5700 5714 5732 5745 5751 5766 5768 5769 5776 5783 5787 5793 5794 5795 5789 5786 5784 5783 5786 5785 5786 5785 5785 5779 5769 5760 5752 5744 5733 5727 5721 5714 5703 5698
5572 5584 5580 5579 5572 5563 5592 5588 5624 5641 5644 5652 5661 5666 5673 5686 5699 5712 5727 5740 5753 5763 5772 5771 5772 5774 5780 5784 5783 5785 5784 5777 5785 5787 5786 5782 5783 5783 5776 5766 5758 5750 5741 5731 5726 5719 5712 5705 5695
5565 5574 5563 5567 5561 5556 5571 5551 5613 5620 5628 5643 5649 5654 5666 5676 5684 5699 5715 5733 5749 5760 5761 5767 5769 5767 5772 5775 5778 5781 5777 5782 5782 5781 5781 5773 5774 5778 5770 5761 5753 5744 5736 5730 5723 5714 5710 5706 5697
5560 5550 5547 5543 5543 5532 5556 5548 5605 5595 5611 5623 5630 5639 5647 5656 5670 5684 5703 5717 5734 5752 5760 5764 5767 5767 5767 5769 5775 5778 5775 5771 5765 5767 5768 5761 5763 5765 5760 5754 5747 5740 5732 5727 5719 5713 5708 5702 5696
5542 5524 5485 5497 5513 5524 5552 5544 5573 5594 5595 5593 5596 5606 5616 5629 5644 5661 5680 5706 5722 5734 5749 5761 5768 5766 5768 5768 5772 5775 5774 5769 5763 5760 5759 5756 5756 5752 5748 5745 5740 5733 5729 5724 5716 5710 5705 5698 5691
5530 5522 5492 5503 5508 5522 5546 5533 5562 5579 5578 5578 5582 5587 5602 5615 5631 5652 5671 5689 5714 5730 5742 5753 5757 5761 5762 5765 5768 5773 5770 5764 5759 5757 5757 5757 5753 5748 5744 5740 5735 5731 5726 5719 5712 5707 5701 5694 5687
5531 5514 5520 5503 5513 5500 5532 5551 5563 5568 5564 5567 5574 5579 5585 5604 5624 5647 5667 5688 5714 5729 5736 5748 5752 5757 5758 5761 5765 5765 5764 5760 5755 5755 5755 5753 5747 5743 5739 5735 5730 5726 5722 5714 5708 5703 5695 5689 5681
5533 5529 5506 5488 5497 5503 5523 5535 5543 5552 5557 5558 5567 5569 5580 5597 5615 5636 5651 5672 5700 5729 5739 5742 5751 5751 5754 5756 5757 5758 5758 5757 5754 5752 5750 5745 5741 5739 5733 5728 5724 5720 5715 5709 5703 5696 5690 5682 5674
5516 5512 5505 5496 5490 5477 5514 5515 5541 5547 5552 5548 5557 5565 5570 5587 5603 5619 5638 5666 5686 5719 5731 5739 5746 5749 5750 5752 5750 5750 5751 5750 5750 5749 5745 5740 5738 5733 5728 5723 5719 5714 5708 5702 5696 5690 5684 5677 5670
5521 5513 5503 5473 5489 5502 5506 5524 5556 5546 5550 5551 5552 5555 5563 5572 5598 5611 5631 5648 5673 5699 5717 5725 5736 5743 5748 5750 5749 5747 5745 5744 5745 5742 5739 5736 5732 5728 5723 5719 5713 5708 5703 5697 5691 5684 5679 5674 5666